Location: Unspecified
(0.0000°N, 0.0000°E)
Time: 07:05:27
(UTC+00:00)

TIMED - Visible Passes

Search period start: 29 July 2021 00:00
Search period end: 08 August 2021 00:00
Orbit: 602 x 604 km, 74.1° (Epoch: 28 July)

Date Brightness Start Highest point End Pass type
(mag) Time Alt. Az. Time Alt. Az. Time Alt. Az.
29 Jul 6.8 04:24:15 10° NNE 04:27:50 25° ENE 04:31:25 10° SE visible
30 Jul 5.1 04:35:50 10° N 04:40:06 56° ENE 04:44:21 10° SSE visible
31 Jul 4.4 04:48:04 10° NNW 04:52:20 62° WSW 04:56:39 10° S visible
01 Aug 7.7 03:25:16 10° ENE 03:26:23 11° ENE 03:27:29 10° E visible
01 Aug 5.3 05:00:55 10° NW 05:04:36 27° WSW 05:08:18 10° SSW visible
02 Aug 7.4 03:35:09 10° NNE 03:35:36 12° NNE 03:35:36 12° NNE visible
